Location: Ladysmith
(45.4630°N, 91.1040°W)
Time: 02:50:27
(UTC-05:00)

Amateur Radio Satellites - All Passes

Search period start: 22 August 2014 02:20
Search period end: 23 August 2014 02:20
Location: Ladysmith, 45.4630°N, 91.1040°W

Satellite Date Start Highest point End Downlink Frequencies (MHz)
Time Altitude Azimuth
Oscar 19 22 Aug 02:27:21 02:32:27 52° 100° (E) 02:37:30 437.125 CW, 437.150 USB
AO-Echo 22 Aug 02:33:27 02:37:30 27° 95° (E) 02:41:29 ?
ITAMSAT 1 22 Aug 02:37:54 02:42:24 29° 95° (E) 02:46:53 435.822 SSB
Gurwin Techsat 1B 22 Aug 02:38:33 02:41:19 14° 88° (E) 02:44:03 435.225 FM
JAS-1B 22 Aug 02:42:53 02:49:29 32° 91° (E) 02:55:09 435.800 - 435.900 CW/SSB
Uribyol 2 22 Aug 02:50:11 02:55:04 40° 98° (E) 02:59:55 436.500 FM
Oscar 16 22 Aug 03:00:28 03:05:41 79° 286° (WNW) 03:10:53 437.025 USB, Beacon 2401.1428
AO-27 22 Aug 03:03:58 03:09:01 51° 100° (E) 03:14:03 436.795 MHz FM
KITSAT 1 22 Aug 03:10:34 03:18:25 52° 313° (NW) 03:26:19 435.175 FM
OPAL 22 Aug 03:11:07 03:14:53 22° 58° (ENE) 03:18:42 ?
Sapphire 22 Aug 03:13:15 03:17:55 28° 43° (NE) 03:22:33 437.095 MHz 1200 baud AX-25 AFSK
TMSAT-1 22 Aug 03:35:01 03:39:48 33° 96° (E) 03:44:33 436.925 FM
PCSat 22 Aug 03:43:35 03:48:49 46° 51° (NE) 03:54:01 145.825 MHz
Saudisat 1A 22 Aug 03:48:00 03:50:35 15° 329° (NNW) 03:53:10 436.775 MHz
Oscar 19 22 Aug 04:07:23 04:11:28 24° 298° (WNW) 04:15:31 437.125 CW, 437.150 USB
AO-Echo 22 Aug 04:12:03 04:16:21 35° 293° (WNW) 04:20:35 ?
AO-7 22 Aug 04:15:00 04:21:20 24° 91° (E) 04:27:37 29.400 - 29.500 MHz
Gurwin Techsat 1B 22 Aug 04:16:36 04:21:56 82° 286° (WNW) 04:27:14 435.225 FM
ITAMSAT 1 22 Aug 04:17:12 04:21:59 39° 293° (WNW) 04:26:45 435.822 SSB
Uribyol 2 22 Aug 04:29:58 04:34:24 30° 296° (WNW) 04:38:49 436.500 FM
JAS-1B 22 Aug 04:33:05 04:40:31 51° 295° (WNW) 04:46:45 435.800 - 435.900 CW/SSB
Oscar 16 22 Aug 04:41:59 04:44:12 13° 305° (NW) 04:46:25 437.025 USB, Beacon 2401.1428
AO-27 22 Aug 04:44:09 04:48:13 24° 298° (WNW) 04:52:17 436.795 MHz FM
OPAL 22 Aug 04:48:27 04:53:22 57° 257° (WSW) 04:58:24 ?
Uosat F 22 Aug 04:53:32 04:58:06 35° 97° (E) 05:02:38 435.120 FM
Sapphire 22 Aug 04:56:22 05:01:42 58° 244° (WSW) 05:06:59 437.095 MHz 1200 baud AX-25 AFSK
KITSAT 1 22 Aug 05:10:06 05:15:57 21° 340° (NNW) 05:21:48 435.175 FM
TMSAT-1 22 Aug 05:14:56 05:19:44 36° 294° (WNW) 05:24:30 436.925 FM
PCSat 22 Aug 05:27:21 05:32:03 31° 250° (WSW) 05:36:44 145.825 MHz
SO-50 22 Aug 05:51:26 05:55:06 25° 114° (ESE) 05:58:50 436.795 FM
Hamsat 22 Aug 05:54:51 05:57:11 14° 89° (E) 05:59:31 145.90 MHz
Gurwin Techsat 1B 22 Aug 05:58:35 06:01:04 14° 305° (NW) 06:03:33 435.225 FM
AO-7 22 Aug 06:06:41 06:15:01 82° 291° (WNW) 06:23:17 29.400 - 29.500 MHz
STRAND 1 22 Aug 06:16:44 06:21:28 40° 68° (ENE) 06:26:13 ?
JAS-1B 22 Aug 06:26:18 06:29:00 12° 320° (NW) 06:31:34 435.800 - 435.900 CW/SSB
Uosat F 22 Aug 06:32:26 06:36:50 32° 295° (WNW) 06:41:12 435.120 FM
JAS-2 22 Aug 06:47:44 06:52:37 41° 98° (E) 06:57:35 435.800 - 435.900 CW/SSB, 435.910 FM
UOSAT-12 22 Aug 07:06:18 07:08:03 12° 107° (ESE) 07:09:49 437.025 FM, 437.400 FM
KITSAT 1 22 Aug 07:09:44 07:14:57 18° 10° (N) 07:20:08 435.175 FM
Hamsat 22 Aug 07:29:14 07:33:34 61° 286° (WNW) 07:37:51 145.90 MHz
SO-50 22 Aug 07:31:07 07:35:26 44° 313° (NW) 07:39:52 436.795 FM
STRAND 1 22 Aug 07:56:24 08:00:46 28° 265° (W) 08:05:09 ?
AO-7 22 Aug 08:00:43 08:06:38 22° 313° (NW) 08:12:34 29.400 - 29.500 MHz
JAS-2 22 Aug 08:33:19 08:37:37 27° 296° (WNW) 08:41:56 435.800 - 435.900 CW/SSB, 435.910 FM
SO-67 22 Aug 08:34:54 08:38:20 60° 285° (WNW) 08:41:45 435.3500 MHz FM
HO-68 22 Aug 08:35:00 08:38:26 14° 86° (E) 08:41:50 435.675 MHz FM
RS-15 22 Aug 08:37:19 08:46:45 34° 106° (ESE) 08:56:02 29.354 - 29.394 USB, Beacon 29.352 USB
UOSAT-12 22 Aug 08:42:49 08:47:27 90° 128° (SE) 08:52:12 437.025 FM, 437.400 FM
Saudisat 1A 22 Aug 08:51:25 08:55:14 27° 41° (NE) 08:59:01 436.775 MHz
KITSAT 1 22 Aug 09:05:46 09:13:08 36° 39° (NE) 09:20:26 435.175 FM
SO-50 22 Aug 09:15:25 09:17:12 12° 335° (NNW) 09:19:00 436.795 FM
UKube-1 22 Aug 10:09:06 10:13:11 38° 98° (E) 10:17:13 145.840 MHz, 145.915 MHz
HO-68 22 Aug 10:20:07 10:27:18 75° 105° (ESE) 10:34:27 435.675 MHz FM
UOSAT-12 22 Aug 10:24:55 10:28:17 19° 326° (NW) 10:31:40 437.025 FM, 437.400 FM
Oscar 11 22 Aug 10:25:11 10:29:15 36° 97° (E) 10:33:17 145.825 FM, Beacon 2401.500 USB
FUNcube-1 22 Aug 10:25:52 10:28:37 16° 91° (E) 10:31:23 145.950 - 145.970 MHz USB
Saudisat 1A 22 Aug 10:30:46 10:35:00 45° 241° (WSW) 10:39:11 436.775 MHz
RS-15 22 Aug 10:47:08 10:58:11 75° 309° (NW) 11:09:10 29.354 - 29.394 USB, Beacon 29.352 USB
KITSAT 1 22 Aug 11:01:08 11:09:11 71° 242° (WSW) 11:17:09 435.175 FM
JAS-1B 22 Aug 11:43:58 11:47:27 13° 41° (NE) 11:50:49 435.800 - 435.900 CW/SSB
UKube-1 22 Aug 11:45:46 11:49:11 23° 296° (WNW) 11:52:35 145.840 MHz, 145.915 MHz
FUNcube-1 22 Aug 12:01:00 12:05:20 56° 287° (WNW) 12:09:44 145.950 - 145.970 MHz USB
Oscar 11 22 Aug 12:01:45 12:05:16 24° 295° (WNW) 12:08:45 145.825 FM, Beacon 2401.500 USB
HO-68 22 Aug 12:08:46 12:14:21 26° 305° (NW) 12:19:56 435.675 MHz FM
Oscar 19 22 Aug 12:10:15 12:12:58 15° 57° (ENE) 12:15:42 437.125 CW, 437.150 USB
Uribyol 2 22 Aug 12:34:53 12:36:46 12° 55° (NE) 12:38:39 436.500 FM
SO-50 22 Aug 12:40:46 12:42:54 13° 26° (NNE) 12:45:02 436.795 FM
Oscar 16 22 Aug 12:41:34 12:45:49 27° 63° (ENE) 12:50:06 437.025 USB, Beacon 2401.1428
AO-27 22 Aug 12:47:50 12:50:43 15° 57° (ENE) 12:53:36 436.795 MHz FM
KITSAT 1 22 Aug 12:59:09 13:03:07 15° 261° (W) 13:07:04 435.175 FM
RS-15 22 Aug 13:03:08 13:12:41 33° 339° (NNW) 13:22:18 29.354 - 29.394 USB, Beacon 29.352 USB
TMSAT-1 22 Aug 13:23:18 13:24:11 10° 53° (NE) 13:25:04 436.925 FM
JAS-1B 22 Aug 13:26:41 13:35:45 44° 62° (ENE) 13:44:12 435.800 - 435.900 CW/SSB
AO-7 22 Aug 13:30:39 13:33:08 12° 35° (NE) 13:35:36 29.400 - 29.500 MHz
Oscar 19 22 Aug 13:46:25 13:51:34 89° 255° (WSW) 13:56:47 437.125 CW, 437.150 USB
AO-Echo 22 Aug 13:48:02 13:52:58 48° 70° (ENE) 13:57:47 ?
ITAMSAT 1 22 Aug 13:57:57 14:03:00 56° 70° (ENE) 14:08:04 435.822 SSB
Gurwin Techsat 1B 22 Aug 14:01:10 14:05:39 29° 64° (ENE) 14:10:10 435.225 FM
Uribyol 2 22 Aug 14:10:14 14:15:22 75° 73° (ENE) 14:20:32 436.500 FM
SO-50 22 Aug 14:20:01 14:24:37 47° 48° (NE) 14:29:17 436.795 FM
Oscar 16 22 Aug 14:20:04 14:24:57 44° 262° (W) 14:29:54 437.025 USB, Beacon 2401.1428
AO-27 22 Aug 14:24:20 14:29:32 86° 255° (WSW) 14:34:46 436.795 MHz FM
ISS 22 Aug 14:26:30 14:29:39 42° 143° (SE) 14:32:50 145.800 FM
TMSAT-1 22 Aug 14:57:52 15:03:05 64° 72° (ENE) 15:08:20 436.925 FM
MaSat-1 22 Aug 15:12:29 15:16:48 35° 108° (ESE) 15:21:27 437.345 MHz
AO-7 22 Aug 15:16:04 15:23:42 42° 58° (ENE) 15:31:19 29.400 - 29.500 MHz
JAS-1B 22 Aug 15:16:11 15:25:55 59° 260° (W) 15:35:08 435.800 - 435.900 CW/SSB
RS-15 22 Aug 15:20:04 15:29:20 30° 14° (NNE) 15:38:45 29.354 - 29.394 USB, Beacon 29.352 USB
AO-Echo 22 Aug 15:27:54 15:31:57 23° 267° (W) 15:35:57 ?
Oscar 19 22 Aug 15:29:48 15:31:40 12° 273° (W) 15:33:32 437.125 CW, 437.150 USB
UOSAT-12 22 Aug 15:30:51 15:34:49 26° 39° (NE) 15:38:45 437.025 FM, 437.400 FM
ITAMSAT 1 22 Aug 15:39:02 15:42:51 21° 268° (W) 15:46:40 435.822 SSB
Gurwin Techsat 1B 22 Aug 15:40:25 15:45:27 43° 262° (W) 15:50:30 435.225 FM
Uribyol 2 22 Aug 15:52:33 15:55:25 15° 271° (W) 15:58:19 436.500 FM
SO-50 22 Aug 16:01:00 16:05:00 27° 246° (WSW) 16:09:01 436.795 FM
ISS 22 Aug 16:03:15 16:06:25 41° 342° (NNW) 16:09:36 145.800 FM
AO-27 22 Aug 16:08:10 16:09:49 11° 273° (W) 16:11:27 436.795 MHz FM
Uosat F 22 Aug 16:08:49 16:13:45 61° 71° (ENE) 16:18:42 435.120 FM
TMSAT-1 22 Aug 16:39:50 16:43:27 19° 270° (W) 16:47:05 436.925 FM
MaSat-1 22 Aug 16:49:22 16:53:54 37° 308° (NW) 16:58:42 437.345 MHz
Hamsat 22 Aug 16:50:54 16:53:14 15° 61° (ENE) 16:55:34 145.90 MHz
OPAL 22 Aug 16:56:11 17:00:48 31° 98° (E) 17:05:24 ?
JAS-2 22 Aug 17:02:31 17:07:45 27° 63° (ENE) 17:12:31 435.800 - 435.900 CW/SSB, 435.910 FM
AO-7 22 Aug 17:08:14 17:16:19 52° 258° (WSW) 17:24:26 29.400 - 29.500 MHz
UOSAT-12 22 Aug 17:10:40 17:15:19 58° 239° (WSW) 17:19:54 437.025 FM, 437.400 FM
JAS-1B 22 Aug 17:13:59 17:18:06 13° 280° (W) 17:22:09 435.800 - 435.900 CW/SSB
RS-15 22 Aug 17:33:37 17:44:31 61° 45° (NE) 17:55:45 29.354 - 29.394 USB, Beacon 29.352 USB
ISS 22 Aug 17:40:48 17:43:42 27° 2° (N) 17:46:37 145.800 FM
Uosat F 22 Aug 17:49:36 17:52:57 18° 269° (W) 17:56:19 435.120 FM
Sapphire 22 Aug 18:00:28 18:02:45 13° 102° (ESE) 18:05:03 437.095 MHz 1200 baud AX-25 AFSK
Hamsat 22 Aug 18:24:26 18:28:40 65° 259° (W) 18:33:00 145.90 MHz
STRAND 1 22 Aug 18:27:56 18:28:52 10° 86° (E) 18:29:48 ?
PCSat 22 Aug 18:28:30 18:32:49 25° 108° (ESE) 18:37:09 145.825 MHz
OPAL 22 Aug 18:34:56 18:39:44 39° 295° (WNW) 18:44:32 ?
JAS-2 22 Aug 18:46:04 18:52:35 56° 259° (W) 18:58:22 435.800 - 435.900 CW/SSB, 435.910 FM
HO-68 22 Aug 19:06:58 19:11:07 17° 48° (NE) 19:15:15 435.675 MHz FM
SO-67 22 Aug 19:09:47 19:13:11 58° 75° (ENE) 19:16:38 435.3500 MHz FM
ISS 22 Aug 19:17:39 19:20:55 50° 22° (NNE) 19:24:11 145.800 FM
Sapphire 22 Aug 19:39:54 19:45:19 85° 120° (ESE) 19:50:46 437.095 MHz 1200 baud AX-25 AFSK
RS-15 22 Aug 19:46:21 19:56:39 47° 249° (WSW) 20:07:21 29.354 - 29.394 USB, Beacon 29.352 USB
STRAND 1 22 Aug 20:03:43 20:08:51 83° 104° (ESE) 20:13:57 ?
PCSat 22 Aug 20:10:35 20:15:53 55° 307° (NW) 20:21:14 145.825 MHz
HO-68 22 Aug 20:50:31 20:57:36 70° 69° (ENE) 21:04:43 435.675 MHz FM
ISS 22 Aug 20:54:35 20:57:33 30° 220° (SW) 21:00:31 145.800 FM
UKube-1 22 Aug 21:06:38 21:10:47 45° 70° (ENE) 21:14:56 145.840 MHz, 145.915 MHz
Oscar 11 22 Aug 21:22:20 21:26:20 38° 70° (ENE) 21:30:22 145.825 FM, Beacon 2401.500 USB
FUNcube-1 22 Aug 21:25:10 21:27:48 17° 62° (ENE) 21:30:27 145.950 - 145.970 MHz USB
Sapphire 22 Aug 21:25:22 21:29:27 21° 322° (NW) 21:33:32 437.095 MHz 1200 baud AX-25 AFSK
STRAND 1 22 Aug 21:44:29 21:47:23 15° 303° (WNW) 21:50:16 ?
PCSat 22 Aug 21:57:40 22:00:33 14° 330° (NNW) 22:03:27 145.825 MHz
HO-68 22 Aug 22:40:18 22:45:54 25° 268° (W) 22:51:33 435.675 MHz FM
UKube-1 22 Aug 22:44:07 22:47:13 19° 267° (W) 22:50:19 145.840 MHz, 145.915 MHz
Oscar 11 22 Aug 22:59:17 23:02:39 22° 267° (W) 23:06:03 145.825 FM, Beacon 2401.500 USB
FUNcube-1 22 Aug 22:59:47 23:03:49 51° 260° (W) 23:07:56 145.950 - 145.970 MHz USB
MaSat-1 22 Aug 23:28:23 23:31:57 19° 43° (NE) 23:35:17 437.345 MHz
KITSAT 1 22 Aug 23:42:25 23:45:14 12° 97° (E) 23:48:03 435.175 FM
Saudisat 1A 23 Aug 00:39:33 00:43:15 27° 115° (ESE) 00:46:58 436.775 MHz
MaSat-1 23 Aug 01:04:48 01:09:43 75° 245° (WSW) 01:14:02 437.345 MHz
KITSAT 1 23 Aug 01:31:04 01:39:00 63° 117° (ESE) 01:46:58 435.175 FM
PCSat 23 Aug 01:31:45 01:33:01 11° 24° (NNE) 01:34:17 145.825 MHz
AO-Echo 23 Aug 01:55:27 01:56:57 11° 87° (E) 01:58:28 ?
Oscar 19 23 Aug 01:56:16 02:00:42 28° 94° (E) 02:05:07 437.125 CW, 437.150 USB
ITAMSAT 1 23 Aug 02:09:48 02:13:02 16° 90° (E) 02:16:14 435.822 SSB
Oscar 10/S400 23 Aug 02:18:09 21:16:55 50° 161° (SSE) 23:43:04 145.825 - 145.975 CW/USB, Beacon 145.810 USB
